Location: Newark
(48.8656°N, 2.3211°E)
Time: 04:43:49
(UTC+00:00)

Envisat - Pass Details

Date: 17 December 2019
Orbit: 764 x 766 km, 98.1° (Epoch: 20 January)

Event Time Altitude Azimuth Distance (km) Brightness Sun altitude
Rises 16:37:50 0° 135° (SE) 3,225 6.1 -6.9°
Reaches altitude 10° 16:40:20 10° 125° (SE) 2,303 5.2 -7.2°
Maximum altitude 16:44:46 31° 64° (ENE) 1,316 3.7 -7.9°
Drops below altitude 10° 16:49:13 10° 3° (N) 2,316 5.2 -8.5°
Sets 16:51:44 0° 354° (N) 3,247 6.0 -8.9°
